Reggio Calabria, Italy

5:38 PM CEST on May 28, 2017 (GMT +0200)
Reggio Calabria

Weather History for LICR - January, 2013

Change the Weather History Date:

Saturday, January 19, 2013

  Actual Average Record
Temperature  
Mean Temperature 53 °F -  
Max Temperature 60 °F 57 °F 64 °F (2014)
Min Temperature 46 °F 46 °F 41 °F (1999)
Degree Days  
Heating Degree Days 12    
Growing Degree Days 3 (Base 50)    
Moisture  
Dew Point 44 °F    
Average Humidity 68    
Maximum Humidity 82    
Minimum Humidity 54    
Precipitation  
Precipitation 0.00 in - - ()
Sea Level Pressure  
Sea Level Pressure 29.71 in    
Wind  
Wind Speed 8 mph ()    
Max Wind Speed 13 mph    
Max Gust Speed 24 mph    
Visibility 6.2 miles    
Events      
Averages and records for this station are not official NWS values.
T = Trace of Precipitation, MM = Missing Value Source: Averaged Metar Reports

Daily Weather History Graph

Daily Weather History Graph

Search for Another Location

Airport or City:

Trip Planner

Search our weather history database for the weather conditions in past years. The results will help you decide how hot, cold, wet, or windy it might be!

Date:

Astronomy

Jan. 19, 2013 Rise Set
Actual Time 7:10 AM CET 5:05 PM CET
Civil Twilight 6:42 AM CET 5:34 PM CET
Nautical Twilight 6:09 AM CET 6:06 PM CET
Astronomical Twilight 5:38 AM CET 6:38 PM CET
Moon 11:21 AM CET (1/19) 12:29 AM CET (1/19)
Length of Visible Light 10h 52m
Length of Day
9h 55m
First Quarter, 54% of the Moon is Illuminated
Jan 19
First Quarter
Jan 27
Full
Feb 3
Last Quarter
Feb 10
New
Feb 17
First Quarter

Hourly Weather History & Observations

Time (CET) Temp. Windchill Dew Point Humidity Pressure Visibility Wind Dir Wind Speed Gust Speed Precip Events Conditions
12:50 AM 51.8 °F - 35.6 °F 54% 29.65 in 6.2 mi WNW 12.7 mph 24.2 mph N/A   Partly Cloudy
5:50 AM 46.4 °F 42.9 °F 37.4 °F 71% 29.71 in 6.2 mi NNE 6.9 mph - N/A   Partly Cloudy
6:50 AM 46.4 °F 41.5 °F 37.4 °F 71% 29.71 in 6.2 mi NNW 10.4 mph - N/A   Partly Cloudy
7:50 AM 46.4 °F 44.3 °F 37.4 °F 71% 29.71 in 6.2 mi East 4.6 mph - N/A   Partly Cloudy
8:50 AM 50.0 °F - 41.0 °F 71% 29.74 in 6.2 mi East 4.6 mph - N/A   Partly Cloudy
9:50 AM 53.6 °F - 37.4 °F 54% 29.74 in 6.2 mi ESE 4.6 mph - N/A   Partly Cloudy
10:50 AM 55.4 °F - 41.0 °F 58% 29.74 in 6.2 mi South 5.8 mph - N/A   Partly Cloudy
11:50 AM 53.6 °F - 41.0 °F 62% 29.74 in 6.2 mi South 10.4 mph - N/A   Partly Cloudy
12:50 PM 55.4 °F - 39.2 °F 54% 29.71 in 6.2 mi South 6.9 mph - N/A   Partly Cloudy
1:50 PM 55.4 °F - 41.0 °F 58% 29.71 in 6.2 mi SSW 12.7 mph - N/A   Partly Cloudy
2:50 PM 53.6 °F - 41.0 °F 62% 29.71 in 6.2 mi SSE 11.5 mph - N/A   Partly Cloudy
3:50 PM 55.4 °F - 46.4 °F 72% 29.71 in 6.2 mi SSE 9.2 mph - N/A   Partly Cloudy
4:50 PM 55.4 °F - 48.2 °F 77% 29.71 in 6.2 mi SSE 8.1 mph - N/A   Scattered Clouds
5:50 PM 57.2 °F - 50.0 °F 77% 29.71 in 6.2 mi South 8.1 mph - N/A   Scattered Clouds
6:50 PM 57.2 °F - 50.0 °F 77% 29.71 in 6.2 mi South 8.1 mph - N/A   Scattered Clouds
7:50 PM 59.0 °F - 51.8 °F 77% 29.71 in 6.2 mi South 8.1 mph - N/A   Scattered Clouds
8:50 PM 59.0 °F - 53.6 °F 82% 29.71 in 6.2 mi South 8.1 mph - N/A   Scattered Clouds
9:50 PM 60.8 °F - 51.8 °F 72% 29.71 in 6.2 mi South 10.4 mph - N/A   Partly Cloudy
10:50 PM 60.8 °F - 51.8 °F 72% 29.71 in 6.2 mi South 9.2 mph - N/A   Partly Cloudy
11:50 PM 60.8 °F - 50.0 °F 68% 29.71 in 6.2 mi South 8.1 mph - N/A   Partly Cloudy